Location: Mactaquac Provincial Park
(45.9573°N, 66.8897°W)
Time: 04:27:25
(UTC-04:00)

Cosmos 1867 - Visible Passes

Search period start: 23 January 2017 00:00
Search period end: 02 February 2017 00:00
Orbit: 775 x 800 km, 65.0° (Epoch: 22 January)

Date Brightness Start Highest point End Pass type
(mag) Time Alt. Az. Time Alt. Az. Time Alt. Az.
23 Jan 4.8 18:40:02 10° NNW 18:44:20 23° NE 18:45:51 20° ENE visible
23 Jan 4.6 20:23:09 10° NW 20:26:33 39° NW 20:26:33 39° NW visible
24 Jan 5.0 18:08:32 10° NNW 18:12:25 19° NNE 18:15:43 12° ENE visible
24 Jan 3.6 19:51:31 10° NNW 19:56:25 65° N 19:56:25 65° N visible
24 Jan 6.3 21:36:08 10° WNW 21:37:08 14° WNW 21:37:08 14° WNW visible
25 Jan 3.6 19:19:54 10° NNW 19:25:18 55° NE 19:26:27 46° E visible
25 Jan 5.6 21:04:02 10° NW 21:07:10 24° W 21:07:10 24° W visible
26 Jan 3.9 18:48:19 10° NNW 18:53:33 43° NE 18:56:40 22° ESE visible
26 Jan 4.8 20:32:07 10° NW 20:37:04 36° WSW 20:37:25 36° WSW visible
27 Jan 4.2 18:16:45 10° NNW 18:21:45 35° NE 18:26:42 10° ESE visible
27 Jan 4.4 20:00:17 10° NW 20:05:32 48° WSW 20:07:57 29° S visible
28 Jan 3.9 19:28:32 10° NW 19:33:57 65° WSW 19:38:55 12° SSE visible
29 Jan 3.6 18:56:50 10° NW 19:02:20 85° WSW 19:07:45 10° SSE visible
29 Jan 6.3 20:42:26 10° WNW 20:45:05 14° WSW 20:47:43 10° SW visible
30 Jan 3.5 18:25:11 10° NNW 18:30:41 75° NE 18:36:07 10° SE visible
30 Jan 6.1 20:09:56 10° WNW 20:13:40 19° WSW 20:17:22 10° SSW visible
31 Jan 3.7 17:53:34 10° NNW 17:58:58 58° NE 18:04:20 10° SE visible
31 Jan 5.7 19:37:48 10° WNW 19:42:13 25° WSW 19:46:35 10° SSW visible
01 Feb 5.3 19:05:51 10° NW 19:10:43 34° WSW 19:15:33 10° S visible
